| time (UTC) | temp F | wind direction | speed MPH | gust MPH | rain 1hr in | rain 24hr in | rain mn in | humidity % | barometer mb |
| 20260510044035 | 56 | 165 | 0.0 | 0.0 | 0.00 | 0.00 | 0.00 | 91 | 1010.4 |
| 20260510043035 | 57 | 165 | 0.0 | 0.0 | 0.00 | 0.00 | 0.00 | 91 | 1010.5 |
| 20260510042535 | 57 | 165 | 0.0 | 0.0 | 0.00 | 0.00 | 0.00 | 91 | 1010.5 |
| 20260510042035 | 57 | 165 | 0.0 | 0.0 | 0.00 | 0.00 | 0.00 | 91 | 1010.4 |
| 20260510041535 | 57 | 165 | 0.0 | 0.0 | 0.00 | 0.00 | 0.00 | 90 | 1010.5 |
| 20260510041035 | 57 | 165 | 0.0 | 0.0 | 0.00 | 0.00 | 0.00 | 90 | 1010.4 |
| 20260510040535 | 57 | 165 | 0.0 | 0.0 | 0.00 | 0.00 | 0.00 | 90 | 1010.5 |
| 20260510035535 | 58 | 165 | 0.0 | 0.0 | 0.00 | 0.00 | 0.00 | 90 | 1010.4 |
| 20260510035035 | 58 | 165 | 0.0 | 0.0 | 0.00 | 0.00 | 0.00 | 90 | 1010.4 |
| 20260510034535 | 58 | 165 | 0.0 | 0.0 | 0.00 | 0.00 | 0.00 | 89 | 1010.3 |
| 20260510033535 | 58 | 165 | 0.0 | 0.0 | 0.00 | 0.00 | 0.00 | 89 | 1010.3 |
| 20260510033035 | 59 | 165 | 0.0 | 0.0 | 0.00 | 0.00 | 0.00 | 89 | 1010.2 |
| 20260510032535 | 59 | 165 | 0.0 | 0.0 | 0.00 | 0.00 | 0.00 | 88 | 1010.2 |
| 20260510032034 | 59 | 165 | 0.0 | 0.0 | 0.00 | 0.00 | 0.00 | 88 | 1010.2 |
| 20260510031535 | 59 | 165 | 0.0 | 0.0 | 0.00 | 0.00 | 0.00 | 88 | 1010.2 |
| 20260510031035 | 59 | 165 | 0.0 | 0.0 | 0.00 | 0.00 | 0.00 | 88 | 1010.2 |
| 20260510030535 | 59 | 165 | 0.0 | 0.0 | 0.00 | 0.00 | 0.00 | 87 | 1010.2 |
| 20260510030035 | 60 | 165 | 0.0 | 0.0 | 0.00 | 0.00 | 0.00 | 87 | 1010.2 |
| 20260510025535 | 60 | 165 | 0.0 | 0.0 | 0.00 | 0.00 | 0.00 | 87 | 1010.2 |
| 20260510025035 | 60 | 165 | 0.0 | 0.0 | 0.00 | 0.00 | 0.00 | 87 | 1010.1 |
| 20260510024535 | 60 | 165 | 0.0 | 0.0 | 0.00 | 0.00 | 0.00 | 86 | 1010.0 |
| 20260510023535 | 60 | 165 | 0.0 | 0.0 | 0.00 | 0.00 | 0.00 | 86 | 1010.0 |
| 20260510022035 | 61 | 165 | 0.0 | 0.0 | 0.00 | 0.00 | 0.00 | 85 | 1009.9 |
| 20260510021535 | 61 | 165 | 0.0 | 0.0 | 0.00 | 0.00 | 0.00 | 85 | 1009.9 |
| 20260510021035 | 61 | 165 | 0.0 | 0.0 | 0.00 | 0.00 | 0.00 | 85 | 1009.8 |
| 20260510020534 | 61 | 165 | 0.0 | 0.0 | 0.00 | 0.00 | 0.00 | 85 | 1009.8 |
| 20260510020035 | 61 | 165 | 0.0 | 0.0 | 0.00 | 0.00 | 0.00 | 84 | 1009.8 |
| 20260510015534 | 61 | 165 | 0.0 | 0.0 | 0.00 | 0.00 | 0.00 | 84 | 1009.7 |
| 20260510014535 | 62 | 165 | 0.0 | 0.0 | 0.00 | 0.00 | 0.00 | 84 | 1009.6 |
| 20260510014035 | 62 | 165 | 0.0 | 0.0 | 0.00 | 0.00 | 0.00 | 84 | 1009.6 |
| 20260510013535 | 62 | 165 | 0.0 | 0.0 | 0.00 | 0.00 | 0.00 | 84 | 1009.5 |
| 20260510013035 | 62 | 165 | 0.0 | 0.0 | 0.00 | 0.00 | 0.00 | 83 | 1009.4 |
| 20260510012535 | 62 | 165 | 0.0 | 0.0 | 0.00 | 0.00 | 0.00 | 82 | 1009.4 |
| 20260510012035 | 62 | 165 | 0.0 | 0.0 | 0.00 | 0.00 | 0.00 | 82 | 1009.3 |
| 20260510011535 | 63 | 165 | 0.0 | 0.0 | 0.00 | 0.00 | 0.00 | 82 | 1009.3 |
| 20260510011035 | 63 | 165 | 0.0 | 0.0 | 0.00 | 0.00 | 0.00 | 81 | 1009.2 |
| 20260510010535 | 63 | 165 | 0.0 | 0.0 | 0.00 | 0.00 | 0.00 | 80 | 1009.3 |
| 20260510010034 | 64 | 165 | 0.0 | 0.0 | 0.00 | 0.00 | 0.00 | 79 | 1009.1 |
| 20260510004534 | 64 | 165 | 0.0 | 0.0 | 0.00 | 0.00 | 0.00 | 77 | 1009.0 |
| 20260510004034 | 65 | 165 | 0.0 | 0.0 | 0.00 | 0.00 | 0.00 | 77 | 1009.0 |
| 20260510003535 | 65 | 165 | 0.0 | 0.0 | 0.00 | 0.00 | 0.00 | 76 | 1008.9 |
| 20260510002535 | 66 | 165 | 0.0 | 0.0 | 0.00 | 0.00 | 0.00 | 75 | 1008.9 |
| 20260510002035 | 67 | 165 | 0.0 | 0.0 | 0.00 | 0.00 | 0.00 | 74 | 1008.8 |
| 20260510001535 | 67 | 165 | 0.0 | 0.0 | 0.00 | 0.00 | 0.00 | 74 | 1008.7 |
| 20260510001035 | 68 | 165 | 0.0 | 0.0 | 0.00 | 0.00 | 0.00 | 72 | 1008.7 |
| 20260510000534 | 68 | 165 | 0.0 | 0.0 | 0.00 | 0.00 | 0.00 | 71 | 1008.8 |
| 20260510000035 | 69 | 165 | 0.0 | 0.0 | 0.00 | 0.00 | 0.00 | 70 | 1008.6 |
| 20260509235535 | 69 | 165 | 0.0 | 0.0 | 0.00 | 0.00 | 0.00 | 68 | 1008.6 |
| 20260509235034 | 69 | 165 | 0.0 | 0.0 | 0.00 | 0.00 | 0.00 | 68 | 1008.5 |
| 20260509234535 | 70 | 165 | 0.0 | 0.0 | 0.00 | 0.00 | 0.00 | 67 | 1008.6 |
| 20260509234035 | 70 | 165 | 0.0 | 0.0 | 0.00 | 0.00 | 0.00 | 66 | 1008.4 |
| 20260509233534 | 71 | 165 | 0.0 | 0.0 | 0.00 | 0.00 | 0.00 | 65 | 1008.4 |
| 20260509232534 | 71 | 165 | 0.0 | 0.0 | 0.00 | 0.00 | 0.00 | 64 | 1008.3 |
| 20260509232034 | 71 | 165 | 0.0 | 0.0 | 0.00 | 0.00 | 0.00 | 63 | 1008.4 |
| 20260509231534 | 71 | 165 | 0.0 | 1.0 | 0.00 | 0.00 | 0.00 | 62 | 1008.5 |
| 20260509231035 | 72 | 165 | 0.0 | 3.0 | 0.00 | 0.00 | 0.00 | 62 | 1008.5 |
| 20260509230535 | 72 | 165 | 0.0 | 3.0 | 0.00 | 0.00 | 0.00 | 62 | 1008.3 |
| 20260509230034 | 72 | 174 | 1.0 | 3.0 | 0.00 | 0.00 | 0.00 | 61 | 1008.3 |
| 20260509225534 | 72 | 167 | 2.0 | 3.0 | 0.00 | 0.00 | 0.00 | 61 | 1008.3 |
| 20260509224534 | 72 | 183 | 2.0 | 3.0 | 0.00 | 0.00 | 0.00 | 60 | 1008.3 |
| 20260509224035 | 72 | 157 | 1.0 | 7.0 | 0.00 | 0.00 | 0.00 | 60 | 1008.4 |
| 20260509223035 | 72 | 159 | 3.0 | 6.0 | 0.00 | 0.00 | 0.00 | 60 | 1008.3 |
| 20260509222036 | 72 | 206 | 1.0 | 3.0 | 0.00 | 0.00 | 0.00 | 60 | 1008.4 |
| 20260509220535 | 72 | 147 | 2.0 | 7.0 | 0.00 | 0.00 | 0.00 | 60 | 1008.5 |
| 20260509220035 | 73 | 154 | 4.0 | 7.0 | 0.00 | 0.00 | 0.00 | 58 | 1008.4 |
| 20260509214535 | 73 | 184 | 1.0 | 3.0 | 0.00 | 0.00 | 0.00 | 56 | 1008.3 |
| 20260509213535 | 74 | 205 | 2.0 | 7.0 | 0.00 | 0.00 | 0.00 | 56 | 1008.3 |
| 20260509213035 | 74 | 212 | 1.0 | 7.0 | 0.00 | 0.00 | 0.00 | 56 | 1008.2 |
| 20260509212034 | 74 | 163 | 5.0 | 12.0 | 0.00 | 0.00 | 0.00 | 55 | 1008.2 |
| 20260509211535 | 74 | 169 | 2.0 | 12.0 | 0.00 | 0.00 | 0.00 | 54 | 1008.2 |
| 20260509210535 | 74 | 211 | 3.0 | 12.0 | 0.00 | 0.00 | 0.00 | 54 | 1008.3 |
| 20260509205534 | 74 | 186 | 6.0 | 12.0 | 0.00 | 0.00 | 0.00 | 54 | 1008.2 |
| 20260509204534 | 73 | 263 | 3.0 | 7.0 | 0.00 | 0.00 | 0.00 | 57 | 1008.3 |
| 20260509204035 | 73 | 242 | 3.0 | 7.0 | 0.00 | 0.00 | 0.00 | 57 | 1008.2 |
| 20260509203534 | 73 | 239 | 1.0 | 6.0 | 0.00 | 0.00 | 0.00 | 57 | 1008.1 |
| 20260509202535 | 72 | 169 | 3.0 | 8.0 | 0.00 | 0.00 | 0.00 | 59 | 1008.1 |
| 20260509202035 | 72 | 179 | 1.0 | 9.0 | 0.00 | 0.00 | 0.00 | 60 | 1008.1 |
| 20260509201535 | 72 | 208 | 3.0 | 9.0 | 0.00 | 0.00 | 0.00 | 60 | 1008.3 |
| 20260509201034 | 72 | 215 | 5.0 | 9.0 | 0.00 | 0.00 | 0.00 | 58 | 1008.3 |
| 20260509200535 | 73 | 210 | 2.0 | 9.0 | 0.00 | 0.00 | 0.00 | 58 | 1008.5 |
| 20260509195534 | 72 | 217 | 5.0 | 9.0 | 0.00 | 0.00 | 0.00 | 59 | 1008.7 |
| 20260509195034 | 72 | 242 | 2.0 | 7.0 | 0.00 | 0.00 | 0.00 | 61 | 1008.7 |
| 20260509194535 | 72 | 241 | 2.0 | 7.0 | 0.00 | 0.00 | 0.00 | 59 | 1008.7 |
| 20260509194034 | 72 | 212 | 3.0 | 6.0 | 0.00 | 0.00 | 0.00 | 59 | 1008.9 |
| 20260509193535 | 72 | 184 | 2.0 | 9.0 | 0.00 | 0.00 | 0.00 | 60 | 1008.9 |
| 20260509192534 | 71 | 240 | 3.0 | 9.0 | 0.00 | 0.00 | 0.00 | 60 | 1009.1 |
| 20260509192035 | 71 | 180 | 2.0 | 7.0 | 0.00 | 0.00 | 0.00 | 62 | 1009.2 |
| 20260509191535 | 70 | 237 | 2.0 | 7.0 | 0.00 | 0.00 | 0.00 | 62 | 1009.2 |
| 20260509191034 | 70 | 218 | 3.0 | 8.0 | 0.00 | 0.00 | 0.00 | 62 | 1009.3 |
| 20260509190534 | 69 | 179 | 1.0 | 8.0 | 0.00 | 0.00 | 0.00 | 64 | 1009.3 |
| 20260509190034 | 69 | 185 | 2.0 | 9.0 | 0.00 | 0.00 | 0.00 | 64 | 1009.3 |
| 20260509185034 | 69 | 208 | 4.0 | 10.0 | 0.00 | 0.00 | 0.00 | 63 | 1009.2 |
| 20260509184534 | 69 | 214 | 3.0 | 8.0 | 0.00 | 0.00 | 0.00 | 64 | 1009.2 |
| 20260509184034 | 69 | 166 | 3.0 | 8.0 | 0.00 | 0.00 | 0.00 | 64 | 1009.2 |
| 20260509183534 | 69 | 210 | 3.0 | 5.0 | 0.00 | 0.00 | 0.00 | 63 | 1009.4 |
| 20260509183034 | 69 | 212 | 1.0 | 5.0 | 0.00 | 0.00 | 0.00 | 64 | 1009.5 |
| 20260509182534 | 69 | 143 | 1.0 | 5.0 | 0.00 | 0.00 | 0.00 | 65 | 1009.7 |
| 20260509182035 | 68 | 330 | 2.0 | 7.0 | 0.00 | 0.00 | 0.00 | 63 | 1009.8 |
| 20260509181534 | 68 | 181 | 1.0 | 7.0 | 0.00 | 0.00 | 0.00 | 64 | 1009.8 |
| 20260509181035 | 68 | 221 | 1.0 | 8.0 | 0.00 | 0.00 | 0.00 | 64 | 1010.0 |
| 20260509180535 | 69 | 236 | 2.0 | 8.0 | 0.00 | 0.00 | 0.00 | 63 | 1010.0 |
| 20260509175534 | 69 | 253 | 1.0 | 8.0 | 0.00 | 0.00 | 0.00 | 63 | 1010.0 |
| 20260509175034 | 69 | 292 | 0.0 | 8.0 | 0.00 | 0.00 | 0.00 | 63 | 1010.2 |
| 20260509174035 | 69 | 64 | 2.0 | 10.0 | 0.00 | 0.00 | 0.00 | 61 | 1010.2 |
| 20260509173535 | 70 | 274 | 2.0 | 8.0 | 0.00 | 0.00 | 0.00 | 62 | 1010.2 |
| 20260509173035 | 70 | 276 | 2.0 | 10.0 | 0.00 | 0.00 | 0.00 | 61 | 1010.2 |
| 20260509172534 | 70 | 188 | 3.0 | 10.0 | 0.00 | 0.00 | 0.00 | 61 | 1010.1 |
| 20260509171034 | 69 | 314 | 1.0 | 7.0 | 0.00 | 0.00 | 0.00 | 62 | 1010.2 |
| 20260509170534 | 69 | 131 | 3.0 | 7.0 | 0.00 | 0.00 | 0.00 | 62 | 1010.2 |
| 20260509165535 | 68 | 234 | 4.0 | 8.0 | 0.00 | 0.00 | 0.00 | 62 | 1010.3 |
| 20260509165034 | 68 | 151 | 4.0 | 9.0 | 0.00 | 0.00 | 0.00 | 63 | 1010.4 |
| 20260509164534 | 68 | 256 | 1.0 | 9.0 | 0.00 | 0.00 | 0.00 | 63 | 1010.3 |
| 20260509164034 | 67 | 246 | 3.0 | 9.0 | 0.00 | 0.00 | 0.00 | 63 | 1010.5 |
| 20260509163535 | 67 | 201 | 3.0 | 8.0 | 0.00 | 0.00 | 0.00 | 63 | 1010.5 |
| 20260509162535 | 67 | 230 | 2.0 | 9.0 | 0.00 | 0.00 | 0.00 | 63 | 1010.6 |
| 20260509161534 | 67 | 211 | 4.0 | 9.0 | 0.00 | 0.00 | 0.00 | 64 | 1010.5 |
| 20260509161034 | 66 | 184 | 6.0 | 9.0 | 0.00 | 0.00 | 0.00 | 64 | 1010.6 |
| 20260509160534 | 67 | 179 | 3.0 | 9.0 | 0.00 | 0.00 | 0.00 | 64 | 1010.6 |
| 20260509160035 | 67 | 191 | 5.0 | 9.0 | 0.00 | 0.00 | 0.00 | 64 | 1010.5 |
| 20260509155534 | 67 | 184 | 2.0 | 6.0 | 0.00 | 0.00 | 0.00 | 64 | 1010.6 |
| 20260509155034 | 67 | 223 | 1.0 | 6.0 | 0.00 | 0.00 | 0.00 | 64 | 1010.6 |
| 20260509154534 | 67 | 310 | 2.0 | 6.0 | 0.00 | 0.00 | 0.00 | 65 | 1010.8 |
| 20260509154034 | 66 | 260 | 1.0 | 13.0 | 0.00 | 0.00 | 0.00 | 64 | 1010.8 |
| 20260509153534 | 67 | 241 | 5.0 | 13.0 | 0.00 | 0.00 | 0.00 | 63 | 1010.9 |
| 20260509153035 | 67 | 237 | 2.0 | 10.0 | 0.00 | 0.00 | 0.00 | 66 | 1010.9 |
| 20260509152534 | 66 | 220 | 3.0 | 10.0 | 0.00 | 0.00 | 0.00 | 65 | 1010.9 |
| 20260509152034 | 66 | 139 | 4.0 | 8.0 | 0.00 | 0.00 | 0.00 | 64 | 1010.9 |
| 20260509151534 | 66 | 216 | 2.0 | 9.0 | 0.00 | 0.00 | 0.00 | 66 | 1010.7 |
| 20260509151034 | 65 | 218 | 5.0 | 12.0 | 0.00 | 0.00 | 0.00 | 65 | 1010.8 |
| 20260509150534 | 65 | 216 | 6.0 | 12.0 | 0.00 | 0.00 | 0.00 | 64 | 1010.9 |
| 20260509150034 | 65 | 208 | 3.0 | 9.0 | 0.00 | 0.00 | 0.00 | 67 | 1011.1 |
| 20260509145535 | 64 | 184 | 2.0 | 9.0 | 0.00 | 0.00 | 0.00 | 67 | 1011.1 |
| 20260509145035 | 64 | 175 | 3.0 | 10.0 | 0.00 | 0.00 | 0.00 | 68 | 1011.2 |
| 20260509144534 | 63 | 253 | 5.0 | 10.0 | 0.00 | 0.00 | 0.00 | 68 | 1011.3 |
| 20260509144035 | 63 | 214 | 4.0 | 12.0 | 0.00 | 0.00 | 0.00 | 67 | 1011.4 |
| 20260509143535 | 63 | 169 | 4.0 | 12.0 | 0.00 | 0.00 | 0.00 | 67 | 1011.3 |
| 20260509143035 | 63 | 180 | 5.0 | 12.0 | 0.00 | 0.00 | 0.00 | 67 | 1011.4 |
| 20260509142535 | 62 | 283 | 4.0 | 10.0 | 0.00 | 0.00 | 0.00 | 66 | 1011.5 |
| 20260509142034 | 62 | 220 | 5.0 | 9.0 | 0.00 | 0.00 | 0.00 | 67 | 1011.5 |
| 20260509141535 | 61 | 196 | 4.0 | 9.0 | 0.00 | 0.00 | 0.00 | 68 | 1011.6 |
| 20260509141035 | 61 | 197 | 3.0 | 9.0 | 0.00 | 0.00 | 0.00 | 69 | 1011.6 |
| 20260509140534 | 61 | 218 | 3.0 | 9.0 | 0.00 | 0.00 | 0.00 | 70 | 1011.6 |
| 20260509140034 | 60 | 226 | 3.0 | 9.0 | 0.00 | 0.00 | 0.00 | 69 | 1011.5 |
| 20260509135535 | 60 | 206 | 2.0 | 8.0 | 0.00 | 0.00 | 0.00 | 70 | 1011.5 |
| 20260509135034 | 60 | 153 | 2.0 | 8.0 | 0.00 | 0.00 | 0.00 | 71 | 1011.5 |
| 20260509134534 | 59 | 214 | 3.0 | 8.0 | 0.00 | 0.00 | 0.00 | 71 | 1011.5 |
| 20260509134034 | 59 | 211 | 2.0 | 9.0 | 0.00 | 0.00 | 0.00 | 71 | 1011.5 |
| 20260509133534 | 58 | 194 | 2.0 | 9.0 | 0.00 | 0.00 | 0.00 | 72 | 1011.5 |
| 20260509133034 | 58 | 201 | 3.0 | 9.0 | 0.00 | 0.00 | 0.00 | 72 | 1011.6 |
| 20260509132534 | 58 | 133 | 3.0 | 7.0 | 0.00 | 0.00 | 0.00 | 72 | 1011.5 |
| 20260509132034 | 58 | 202 | 2.0 | 8.0 | 0.00 | 0.00 | 0.00 | 72 | 1011.6 |
| 20260509131535 | 58 | 176 | 4.0 | 10.0 | 0.00 | 0.00 | 0.00 | 71 | 1011.5 |
| 20260509131034 | 58 | 220 | 3.0 | 10.0 | 0.00 | 0.00 | 0.00 | 71 | 1011.6 |
| 20260509130534 | 58 | 218 | 2.0 | 10.0 | 0.00 | 0.00 | 0.00 | 70 | 1011.7 |
| 20260509130034 | 58 | 178 | 5.0 | 10.0 | 0.00 | 0.00 | 0.00 | 70 | 1011.6 |
| 20260509125534 | 58 | 140 | 3.0 | 9.0 | 0.00 | 0.00 | 0.00 | 70 | 1011.6 |
| 20260509125034 | 58 | 185 | 2.0 | 8.0 | 0.00 | 0.00 | 0.00 | 70 | 1011.7 |
| 20260509124534 | 58 | 125 | 1.0 | 10.0 | 0.00 | 0.00 | 0.00 | 70 | 1011.7 |
| 20260509124034 | 58 | 145 | 2.0 | 10.0 | 0.00 | 0.00 | 0.00 | 70 | 1011.7 |
| 20260509123534 | 58 | 173 | 3.0 | 10.0 | 0.00 | 0.00 | 0.00 | 70 | 1011.6 |
| 20260509123034 | 58 | 199 | 3.0 | 8.0 | 0.00 | 0.00 | 0.00 | 70 | 1011.6 |
| 20260509122534 | 58 | 167 | 3.0 | 7.0 | 0.00 | 0.00 | 0.00 | 69 | 1011.6 |
| 20260509121534 | 58 | 214 | 3.0 | 9.0 | 0.00 | 0.00 | 0.00 | 69 | 1011.7 |
| 20260509121034 | 58 | 172 | 5.0 | 9.0 | 0.00 | 0.00 | 0.00 | 68 | 1011.8 |
| 20260509120534 | 58 | 186 | 3.0 | 10.0 | 0.00 | 0.00 | 0.00 | 68 | 1011.7 |
| 20260509120035 | 58 | 194 | 5.0 | 10.0 | 0.00 | 0.00 | 0.00 | 67 | 1011.6 |
| 20260509115034 | 57 | 209 | 6.0 | 12.0 | 0.00 | 0.00 | 0.00 | 66 | 1011.5 |
| 20260509114534 | 57 | 147 | 3.0 | 6.0 | 0.00 | 0.00 | 0.00 | 67 | 1011.6 |
| 20260509114034 | 57 | 192 | 2.0 | 5.0 | 0.00 | 0.00 | 0.00 | 68 | 1011.6 |
| 20260509113534 | 57 | 188 | 2.0 | 7.0 | 0.00 | 0.00 | 0.00 | 67 | 1011.6 |
| 20260509113034 | 57 | 283 | 3.0 | 7.0 | 0.00 | 0.00 | 0.00 | 67 | 1011.6 |
| 20260509112534 | 57 | 235 | 2.0 | 6.0 | 0.00 | 0.00 | 0.00 | 67 | 1011.5 |
| 20260509112034 | 57 | 235 | 2.0 | 6.0 | 0.00 | 0.00 | 0.00 | 67 | 1011.5 |
| 20260509111534 | 57 | 250 | 2.0 | 8.0 | 0.00 | 0.00 | 0.00 | 66 | 1011.5 |
| 20260509110534 | 57 | 207 | 2.0 | 6.0 | 0.00 | 0.00 | 0.00 | 65 | 1011.5 |
| 20260509110034 | 57 | 145 | 2.0 | 6.0 | 0.00 | 0.00 | 0.00 | 65 | 1011.5 |
| 20260509105534 | 57 | 158 | 2.0 | 6.0 | 0.00 | 0.00 | 0.00 | 64 | 1011.4 |
| 20260509104534 | 58 | 204 | 3.0 | 8.0 | 0.00 | 0.00 | 0.00 | 61 | 1011.4 |
| 20260509104034 | 58 | 192 | 1.0 | 8.0 | 0.00 | 0.00 | 0.00 | 61 | 1011.4 |
| 20260509103534 | 58 | 171 | 2.0 | 6.0 | 0.00 | 0.00 | 0.00 | 61 | 1011.4 |
| 20260509103034 | 58 | 183 | 3.0 | 6.0 | 0.00 | 0.00 | 0.00 | 60 | 1011.4 |
| 20260509102534 | 58 | 164 | 2.0 | 3.0 | 0.00 | 0.00 | 0.00 | 60 | 1011.2 |
| 20260509102034 | 58 | 209 | 1.0 | 3.0 | 0.00 | 0.00 | 0.00 | 59 | 1011.3 |
| 20260509101534 | 58 | 182 | 1.0 | 3.0 | 0.00 | 0.00 | 0.00 | 59 | 1011.1 |
| 20260509100534 | 59 | 165 | 1.0 | 3.0 | 0.00 | 0.00 | 0.00 | 59 | 1011.1 |
| 20260509100034 | 59 | 159 | 1.0 | 6.0 | 0.00 | 0.00 | 0.00 | 58 | 1011.2 |
| 20260509095534 | 59 | 198 | 1.0 | 6.0 | 0.00 | 0.00 | 0.00 | 57 | 1011.0 |
| 20260509095034 | 59 | 200 | 2.0 | 5.0 | 0.00 | 0.00 | 0.00 | 58 | 1010.9 |
| 20260509094534 | 58 | 186 | 1.0 | 3.0 | 0.00 | 0.00 | 0.00 | 58 | 1010.9 |
| 20260509094034 | 58 | 243 | 0.0 | 3.0 | 0.00 | 0.00 | 0.00 | 58 | 1011.0 |
| 20260509093034 | 58 | 103 | 0.0 | 3.0 | 0.00 | 0.00 | 0.00 | 59 | 1011.1 |
| 20260509092534 | 58 | 150 | 1.0 | 3.0 | 0.00 | 0.00 | 0.00 | 59 | 1011.2 |
| 20260509092034 | 58 | 193 | 1.0 | 3.0 | 0.00 | 0.00 | 0.00 | 60 | 1011.2 |
| 20260509091534 | 58 | 226 | 1.0 | 5.0 | 0.00 | 0.00 | 0.00 | 60 | 1011.2 |
| 20260509091034 | 58 | 135 | 0.0 | 5.0 | 0.00 | 0.00 | 0.00 | 60 | 1011.2 |
| 20260509090035 | 57 | 187 | 1.0 | 6.0 | 0.00 | 0.00 | 0.00 | 61 | 1011.2 |
| 20260509085535 | 57 | 224 | 1.0 | 6.0 | 0.00 | 0.00 | 0.00 | 61 | 1011.3 |
| 20260509084534 | 57 | 197 | 2.0 | 6.0 | 0.00 | 0.00 | 0.00 | 61 | 1011.5 |
| 20260509084034 | 57 | 211 | 1.0 | 6.0 | 0.00 | 0.00 | 0.00 | 61 | 1011.4 |
| 20260509083534 | 57 | 179 | 2.0 | 7.0 | 0.00 | 0.00 | 0.00 | 61 | 1011.5 |
| 20260509083034 | 57 | 177 | 1.0 | 12.0 | 0.00 | 0.00 | 0.00 | 62 | 1011.5 |
| 20260509082534 | 57 | 206 | 3.0 | 12.0 | 0.00 | 0.00 | 0.00 | 62 | 1011.6 |
| 20260509082034 | 57 | 221 | 2.0 | 13.0 | 0.00 | 0.00 | 0.00 | 61 | 1011.6 |
| 20260509081534 | 57 | 188 | 2.0 | 13.0 | 0.00 | 0.00 | 0.00 | 61 | 1011.6 |
| 20260509081034 | 57 | 178 | 2.0 | 9.0 | 0.00 | 0.00 | 0.00 | 61 | 1011.7 |
| 20260509080534 | 57 | 212 | 3.0 | 10.0 | 0.00 | 0.00 | 0.00 | 61 | 1011.9 |
| 20260509080034 | 57 | 218 | 3.0 | 10.0 | 0.00 | 0.00 | 0.00 | 61 | 1011.8 |
| 20260509075534 | 57 | 211 | 5.0 | 10.0 | 0.00 | 0.00 | 0.00 | 61 | 1011.9 |
| 20260509075034 | 57 | 184 | 3.0 | 10.0 | 0.00 | 0.00 | 0.00 | 62 | 1011.9 |
| 20260509074034 | 57 | 205 | 3.0 | 12.0 | 0.00 | 0.00 | 0.00 | 62 | 1012.0 |
| 20260509073534 | 57 | 206 | 1.0 | 12.0 | 0.00 | 0.00 | 0.00 | 62 | 1012.0 |
| 20260509072534 | 57 | 219 | 4.0 | 12.0 | 0.00 | 0.00 | 0.00 | 61 | 1012.0 |
| 20260509072034 | 57 | 158 | 5.0 | 12.0 | 0.00 | 0.00 | 0.00 | 61 | 1012.1 |
| 20260509071534 | 57 | 246 | 5.0 | 12.0 | 0.00 | 0.00 | 0.00 | 61 | 1012.0 |
| 20260509071034 | 57 | 205 | 3.0 | 12.0 | 0.00 | 0.00 | 0.00 | 61 | 1012.0 |
| 20260509070534 | 57 | 179 | 5.0 | 12.0 | 0.00 | 0.00 | 0.00 | 61 | 1012.0 |
| 20260509070035 | 57 | 212 | 2.0 | 9.0 | 0.00 | 0.00 | 0.00 | 61 | 1012.0 |
| 20260509065535 | 57 | 192 | 3.0 | 9.0 | 0.00 | 0.00 | 0.00 | 61 | 1012.0 |
| 20260509065035 | 57 | 159 | 3.0 | 9.0 | 0.00 | 0.00 | 0.00 | 61 | 1012.0 |
| 20260509064534 | 57 | 188 | 3.0 | 9.0 | 0.00 | 0.00 | 0.00 | 61 | 1012.1 |
| 20260509064034 | 57 | 178 | 3.0 | 8.0 | 0.00 | 0.00 | 0.00 | 61 | 1012.1 |
| 20260509063534 | 57 | 194 | 2.0 | 6.0 | 0.00 | 0.00 | 0.00 | 61 | 1012.2 |
| 20260509063035 | 57 | 156 | 2.0 | 8.0 | 0.00 | 0.00 | 0.00 | 60 | 1012.2 |
| 20260509062535 | 57 | 168 | 2.0 | 8.0 | 0.00 | 0.00 | 0.00 | 60 | 1012.2 |
| 20260509062034 | 57 | 190 | 2.0 | 8.0 | 0.00 | 0.00 | 0.00 | 60 | 1012.3 |
| 20260509061535 | 57 | 164 | 3.0 | 7.0 | 0.00 | 0.00 | 0.00 | 60 | 1012.2 |
| 20260509061034 | 57 | 175 | 3.0 | 6.0 | 0.00 | 0.00 | 0.00 | 59 | 1012.4 |
| 20260509060534 | 57 | 169 | 2.0 | 6.0 | 0.00 | 0.00 | 0.00 | 59 | 1012.3 |
| 20260509055535 | 57 | 160 | 2.0 | 6.0 | 0.00 | 0.00 | 0.00 | 59 | 1012.4 |
| 20260509055034 | 57 | 178 | 2.0 | 6.0 | 0.00 | 0.00 | 0.00 | 59 | 1012.4 |
| 20260509054534 | 57 | 170 | 3.0 | 6.0 | 0.00 | 0.00 | 0.00 | 59 | 1012.5 |
| 20260509053534 | 57 | 200 | 1.0 | 5.0 | 0.00 | 0.00 | 0.00 | 58 | 1012.5 |
| 20260509053035 | 57 | 182 | 1.0 | 5.0 | 0.00 | 0.00 | 0.00 | 58 | 1012.5 |
| 20260509052535 | 57 | 181 | 2.0 | 5.0 | 0.00 | 0.00 | 0.00 | 58 | 1012.5 |
| 20260509051534 | 58 | 219 | 1.0 | 3.0 | 0.00 | 0.00 | 0.00 | 58 | 1012.5 |
| 20260509051034 | 58 | 157 | 1.0 | 3.0 | 0.00 | 0.00 | 0.00 | 57 | 1012.5 |
| 20260509050534 | 58 | 185 | 1.0 | 6.0 | 0.00 | 0.00 | 0.00 | 57 | 1012.5 |
| 20260509045534 | 58 | 149 | 0.0 | 3.0 | 0.00 | 0.00 | 0.00 | 56 | 1012.5 |
| 20260509045034 | 58 | 205 | 1.0 | 3.0 | 0.00 | 0.00 | 0.00 | 56 | 1012.5 |